Weather History for Jerez de la Frontera, Spain

Change the Weather History Date:

Sunday, October 7, 2012

  Actual Average Record
Temperature  
Mean Temperature 74 °F -  
Max Temperature 90 °F 73 °F 93 °F (2004)
Min Temperature 59 °F 53 °F 51 °F (1996)
Cooling Degree Days 10    
Growing Degree Days 24 (Base 50)    
Moisture  
Dew Point 59 °F    
Average Humidity 63    
Maximum Humidity 100    
Minimum Humidity 31    
Precipitation  
Precipitation 0.00 in 0.10 in - ()
Sea Level Pressure  
Sea Level Pressure 30.11 in    
Wind  
Wind Speed 2 mph ()    
Max Wind Speed 9 mph    
Max Gust Speed -    
Visibility 17.5 miles    
Events      
Averages and records for this station are not official NWS values.
T = Trace of Precipitation, MM = Missing Value Source: Averaged Metar Reports

Daily Weather History Graph

Daily Weather History Graph

Search for Another Location

Airport:

Trip Planner

Search our weather history database for the weather conditions in past years. The results will help you decide how hot, cold, wet, or windy it might be!

Date:

Astronomy

Oct. 07, 2012 Rise Set
Actual Time 8:24 AM CEST 7:58 PM CEST
Civil Twilight 7:58 AM CEST 8:24 PM CEST
Nautical Twilight 7:28 AM CEST 8:54 PM CEST
Astronomical Twilight 6:58 AM CEST 9:24 PM CEST
Moon 12:09 AM CEST (10/7) 2:46 PM CEST (10/7)
Length of Visible Light 12h 25m
Length of Day
11h 33m
Waning Gibbous, 58% of the Moon is Illuminated
Oct 7
Waning Gibbous
Oct 8
Last Quarter
Oct 15
New
Oct 22
First Quarter
Oct 29
Full

Hourly Weather History & Observations

Time (CEST) Temp. Heat Index Dew Point Humidity Pressure Visibility Wind Dir Wind Speed Gust Speed Precip Events Conditions
2:00 AM 64 °F - 62 °F 91% 30.16 in 16 mi Calm Calm - -  
5:00 AM 60.8 °F - 60.8 °F 100% 30.12 in - Variable 1.2 mph - N/A   Clear
5:30 AM 62.6 °F - 59.0 °F 88% 30.09 in - Variable 2.3 mph - N/A   Clear
6:00 AM 62.6 °F - 59.0 °F 88% 30.09 in - East 3.5 mph - N/A   Clear
6:30 AM 62.6 °F - 59.0 °F 88% 30.09 in - Variable 1.2 mph - N/A   Clear
7:00 AM 60.8 °F - 59.0 °F 94% 30.09 in - Calm Calm - N/A   Clear
7:30 AM 60.8 °F - 59.0 °F 94% 30.09 in - Variable 1.2 mph - N/A   Clear
8:00 AM 60 °F - 58 °F 93% 30.12 in 25 mi NNW 2.3 mph - -   Clear
8:00 AM 60.8 °F - 59.0 °F 94% 30.09 in - Variable 1.2 mph - N/A   Clear
8:30 AM 59.0 °F - 57.2 °F 94% 30.12 in - Calm Calm - N/A   Clear
9:00 AM 60.8 °F - 59.0 °F 94% 30.12 in - Calm Calm - N/A   Clear
9:30 AM 62.6 °F - 59.0 °F 88% 30.12 in - Variable 1.2 mph - N/A   Clear
10:00 AM 66.2 °F - 60.8 °F 83% 30.12 in - Calm Calm - N/A   Clear
10:30 AM 68.0 °F - 62.6 °F 83% 30.15 in - Variable 1.2 mph - N/A   Clear
11:00 AM 71.6 °F - 60.8 °F 69% 30.15 in - Variable 1.2 mph - N/A   Clear
11:30 AM 73.4 °F - 60.8 °F 65% 30.15 in - Variable 2.3 mph - N/A   Clear
12:00 PM 77.0 °F - 60.8 °F 57% 30.15 in - Variable 2.3 mph - N/A   Clear
12:30 PM 78.8 °F - 60.8 °F 54% 30.12 in - Variable 2.3 mph - N/A   Clear
1:00 PM 82.4 °F 82.5 °F 59.0 °F 45% 30.12 in - NNW 3.5 mph - N/A   Clear
1:30 PM 82.4 °F 82.5 °F 59.0 °F 45% 30.12 in - Variable 2.3 mph - N/A   Clear
2:00 PM 85 °F - 62 °F 36% 30.13 in 25 mi NNW 3.5 mph - -   Clear
2:00 PM 84.2 °F 83.5 °F 57.2 °F 40% 30.12 in - Variable 2.3 mph - N/A   Clear
2:30 PM 86.0 °F 84.9 °F 57.2 °F 37% 30.12 in - Calm Calm - N/A   Clear
3:00 PM 86.0 °F 85.4 °F 59.0 °F 40% 30.09 in - Variable 2.3 mph - N/A   Clear
3:30 PM 86.0 °F 84.9 °F 57.2 °F 37% 30.09 in - Variable 2.3 mph - N/A   Clear
4:00 PM 87.8 °F 86.5 °F 57.2 °F 35% 30.09 in - Calm Calm - N/A   Clear
4:30 PM 87.8 °F 86.1 °F 55.4 °F 33% 30.09 in - Calm Calm - N/A   Clear
5:00 PM 87.8 °F 86.1 °F 55.4 °F 33% 30.09 in - Variable 2.3 mph - N/A   Clear
5:30 PM 87.8 °F 86.1 °F 55.4 °F 33% 30.06 in - Variable 2.3 mph - N/A   Clear
6:00 PM 89.6 °F 87.7 °F 55.4 °F 31% 30.06 in - Calm Calm - N/A   Clear
6:30 PM 89.6 °F 87.7 °F 55.4 °F 31% 30.06 in - Calm Calm - N/A   Clear
7:00 PM 86.0 °F 86.1 °F 60.8 °F 43% 30.06 in - South 4.6 mph - N/A   Clear
7:30 PM 84.2 °F 85.0 °F 62.6 °F 48% 30.06 in - South 5.8 mph - N/A   Clear
8:00 PM 80 °F - 63 °F 47% 30.10 in 19 mi WSW 9.2 mph - -   Clear
8:00 PM 80.6 °F 81.5 °F 60.8 °F 51% 30.09 in - SW 8.1 mph - N/A   Clear
8:30 PM 80.6 °F 81.1 °F 59.0 °F 48% 30.09 in - West 6.9 mph - N/A   Clear
9:00 PM 77.0 °F - 60.8 °F 57% 30.09 in - West 5.8 mph - N/A   Clear
9:30 PM 73.4 °F - 60.8 °F 65% 30.09 in - Variable 2.3 mph - N/A   Clear
10:00 PM 73.4 °F - 60.8 °F 65% 30.12 in - Variable 1.2 mph - N/A   Clear
10:30 PM 71.6 °F - 62.6 °F 73% 30.12 in - Calm Calm - N/A   Clear
11:00 PM 68.0 °F - 62.6 °F 83% 30.12 in - Calm Calm - N/A   Clear